EN

Hourly Weather San Vicente

Today, 25 January, Monday

Time Temperature Precipitation Wind Pressure Humidity
00:00 +13°C° 0.3 mm 0 mps 587 mmHg 97%
01:00 +13°C° 0.3 mm 0 mps 586 mmHg 98%
02:00 +13°C° 0 mm 0 mps 586 mmHg 97%
03:00 +12°C° 0 mm 0 mps 586 mmHg 97%
04:00 +12°C° 0 mm 0 mps 585 mmHg 97%
05:00 +12°C° 0 mm 0 mps 586 mmHg 97%
06:00 +12°C° 0 mm 0 mps 586 mmHg 97%
07:00 +12°C° 0 mm 0 mps 586 mmHg 96%
08:00 +14°C° 0.1 mm 0 mps 587 mmHg 90%
09:00 +16°C° 0.1 mm 0 mps 588 mmHg 83%
10:00 +20°C° 0.1 mm 1 mps 589 mmHg 77%
11:00 +21°C° 0.6 mm 1 mps 589 mmHg 76%
12:00 +21°C° 0.6 mm 1 mps 589 mmHg 74%
13:00 +22°C° 0.6 mm 1 mps 588 mmHg 73%
14:00 +21°C° 0.4 mm 1 mps 588 mmHg 74%
15:00 +21°C° 0.4 mm 1 mps 587 mmHg 74%
16:00 +21°C° 0.4 mm 1 mps 587 mmHg 75%
17:00 +19°C° 0.2 mm 1 mps 586 mmHg 82%
18:00 +18°C° 0.2 mm 1 mps 586 mmHg 90%
19:00 +14°C° 0.2 mm 0 mps 586 mmHg 97%
20:00 +14°C° 0.2 mm 0 mps 586 mmHg 98%
21:00 +14°C° 0.2 mm 0 mps 587 mmHg 98%
22:00 +14°C° 0.2 mm 0 mps 587 mmHg 98%
23:00 +14°C° 0.2 mm 0 mps 587 mmHg 97%

Tomorrow, 26 January, Tuesday

Time Temperature Precipitation Wind Pressure Humidity
00:00 +13°C° 0.2 mm 0 mps 586 mmHg 97%
01:00 +13°C° 0.2 mm 0 mps 586 mmHg 97%
02:00 +13°C° 0 mm 0 mps 586 mmHg 97%
03:00 +13°C° 0 mm 0 mps 586 mmHg 96%
04:00 +12°C° 0 mm 0 mps 586 mmHg 96%
05:00 +13°C° 0.2 mm 0 mps 586 mmHg 96%
06:00 +13°C° 0.2 mm 0 mps 587 mmHg 96%
07:00 +13°C° 0.2 mm 0 mps 587 mmHg 96%
08:00 +14°C° 0.2 mm 0 mps 588 mmHg 92%
09:00 +16°C° 0.2 mm 0 mps 589 mmHg 87%
10:00 +19°C° 0.2 mm 1 mps 589 mmHg 82%
11:00 +20°C° 0.6 mm 1 mps 589 mmHg 79%
12:00 +21°C° 0.6 mm 1 mps 589 mmHg 77%
13:00 +22°C° 0.6 mm 1 mps 589 mmHg 74%
14:00 +21°C° 0.5 mm 1 mps 588 mmHg 77%
15:00 +21°C° 0.5 mm 1 mps 588 mmHg 80%
16:00 +20°C° 0.5 mm 1 mps 587 mmHg 82%
17:00 +19°C° 0.2 mm 1 mps 587 mmHg 87%
18:00 +15°C° 0.2 mm 0 mps 586 mmHg 92%
19:00 +14°C° 0.2 mm 0 mps 586 mmHg 98%
20:00 +14°C° 0 mm 0 mps 587 mmHg 97%
21:00 +14°C° 0 mm 0 mps 587 mmHg 97%
22:00 +14°C° 0 mm 0 mps 588 mmHg 97%
23:00 +14°C° 0.1 mm 0 mps 587 mmHg 97%

Day after tomorrow, 27 January, Wednesday

Time Temperature Precipitation Wind Pressure Humidity
00:00 +13°C° 0.1 mm 0 mps 587 mmHg 97%
01:00 +13°C° 0.1 mm 0 mps 587 mmHg 98%
02:00 +13°C° 0 mm 0 mps 586 mmHg 97%
03:00 +12°C° 0 mm 0 mps 586 mmHg 97%
04:00 +12°C° 0 mm 0 mps 586 mmHg 97%
05:00 +12°C° 0 mm 0 mps 586 mmHg 97%
06:00 +12°C° 0 mm 0 mps 587 mmHg 96%
07:00 +12°C° 0 mm 0 mps 587 mmHg 96%
08:00 +14°C° 0 mm 0 mps 588 mmHg 87%
09:00 +19°C° 0 mm 1 mps 590 mmHg 78%
10:00 +21°C° 0 mm 1 mps 591 mmHg 69%
11:00 +21°C° 0.3 mm 1 mps 591 mmHg 68%
12:00 +22°C° 0.3 mm 1 mps 590 mmHg 68%
13:00 +22°C° 0.3 mm 1 mps 590 mmHg 67%
14:00 +22°C° 0.3 mm 1 mps 589 mmHg 67%
15:00 +22°C° 0.3 mm 1 mps 589 mmHg 67%
16:00 +22°C° 0.3 mm 1 mps 588 mmHg 68%
17:00 +20°C° 0.1 mm 1 mps 588 mmHg 77%
18:00 +18°C° 0.1 mm 1 mps 587 mmHg 87%
19:00 +15°C° 0.1 mm 1 mps 587 mmHg 97%
20:00 +14°C° 0.1 mm 0 mps 587 mmHg 97%
21:00 +14°C° 0.1 mm 0 mps 587 mmHg 97%
22:00 +14°C° 0.1 mm 0 mps 588 mmHg 98%
23:00 +14°C° 0 mm 0 mps 587 mmHg 97%

28 January, Thursday

Time Temperature Precipitation Wind Pressure Humidity
00:00 +13°C° 0 mm 0 mps 587 mmHg 97%
01:00 +13°C° 0 mm 0 mps 587 mmHg 97%
02:00 +13°C° 0 mm 0 mps 587 mmHg 97%
03:00 +12°C° 0 mm 0 mps 586 mmHg 97%
04:00 +12°C° 0 mm 0 mps 586 mmHg 97%
05:00 +12°C° 0 mm 0 mps 586 mmHg 96%
06:00 +12°C° 0 mm 0 mps 587 mmHg 96%
07:00 +12°C° 0 mm 0 mps 587 mmHg 96%
08:00 +15°C° 0 mm 0 mps 588 mmHg 83%
09:00 +19°C° 0 mm 1 mps 590 mmHg 70%
10:00 +22°C° 0 mm 1 mps 591 mmHg 58%
11:00 +23°C° 0 mm 1 mps 591 mmHg 55%
12:00 +24°C° 0 mm 1 mps 591 mmHg 53%
13:00 +24°C° 0 mm 2 mps 591 mmHg 51%

29 January, Friday

Time Temperature Precipitation Wind Pressure Humidity

30 January, Saturday

Time Temperature Precipitation Wind Pressure Humidity
Show more

We Need Your Consent

Meteoprog and our Service Providers may store and access personal data such as cookies, device identifiers or other similar technologies on your device and process such data to personalise content and ads, as well as provide social media features and to analyse the traffic.

  • Store and/or access information on your device

    Cookies, device identifiers or other information can be stored or accessed on your device for the purposes indicated above.

  • Personalised ads and content, ad and content measurement, audience insights, and products development

    Ads and content can be personalised based on a profile. More data can be added to better personalise ads and content. Ad and content performance can be measured. Insights about the audience who saw the ads and content can be derived. Such data can be used to develop or improve user’s experience, systems and software.

By clicking ‘I Agree’ you will allow the use of indicated cookies, device identifiers, web beacons or other similar technologies. Your settings can be changed in the browser on your device.

For certain purposes, legitimate interests may be relied on, rather than consent. You can read more about this in our Privacy and Cookie Policy.